Location: Góry Miechowskie
(50.3599°N, 20.1803°E)
Time: 16:49:42
(UTC+00:00)

deb Explorer IX - Pass Details

Date: 13 September 2024
Orbit: 504 x 830 km, 38.7° (Epoch: 04 October)

Event Time Altitude Azimuth Distance (km) Brightness Sun altitude
Rises 18:52:23 0° 213° (SSW) 3,430 ? -18.3°
Reaches altitude 10° 18:55:57 10° 193° (SSW) 2,488 ? -18.8°
Enters shadow 18:57:45 14° 176° (S) 2,182 ? -19.0°
